Location: Bishopstone
(51.0167°N, 1.9000°W)
Time: 04:12:35
(UTC+00:00)

Cosmos 2322 - Pass Details

Date: 16 September 2019
Orbit: 839 x 856 km, 71.0° (Epoch: 18 October)

Event Time Altitude Azimuth Distance (km) Brightness Sun altitude
Rises 19:04:53 0° 328° (NNW) 3,440 7.6 -7.7°
Reaches altitude 10° 19:07:22 10° 326° (NW) 2,500 6.9 -8.1°
Maximum altitude 19:13:03 67° 246° (WSW) 929 4.2 -9.0°
Drops below altitude 10° 19:18:43 10° 164° (SSE) 2,481 5.8 -9.8°
Sets 19:21:10 0° 162° (SSE) 3,412 6.5 -10.2°
